Location: Unspecified
(0.0000°N, 0.0000°E)
Time: 15:47:56
(UTC+00:00)

A-11 Canister half - Visible Passes

Search period start: 12 April 2021 00:00
Search period end: 22 April 2021 00:00
Orbit: 1515 x 1685 km, 47.2° (Epoch: 11 April)

Date Brightness Start Highest point End Pass type
(mag) Time Alt. Az. Time Alt. Az. Time Alt. Az.
12 Apr 9.3 18:49:34 10° SSW 18:58:06 41° SE 19:05:51 13° ENE visible
12 Apr 9.8 20:54:16 10° WSW 21:02:45 41° NW 21:04:13 39° NNW visible
13 Apr 11.4 05:37:41 10° N 05:44:01 18° NE 05:50:18 10° E visible
13 Apr 9.4 18:26:51 10° SSW 18:35:11 37° SE 18:43:32 10° ENE visible
13 Apr 9.7 20:31:12 10° WSW 20:39:50 45° NW 20:45:00 25° N visible
14 Apr 11.4 05:15:16 10° N 05:20:59 16° NE 05:26:41 10° E visible
14 Apr 9.6 20:08:09 10° WSW 20:16:55 49° NW 20:25:52 10° NNE visible
15 Apr 11.5 04:52:57 10° NNE 04:57:57 15° NE 05:02:57 10° ENE visible
15 Apr 9.6 19:45:07 10° SW 19:54:01 53° NW 20:03:05 10° NNE visible
16 Apr 11.5 04:30:48 10° NNE 04:34:56 13° NE 04:39:01 10° ENE visible
16 Apr 9.5 19:22:07 10° SW 19:31:08 58° NW 19:40:16 10° NNE visible
17 Apr 11.6 04:08:59 10° NNE 04:11:52 11° NE 04:14:45 10° ENE visible
17 Apr 9.4 18:59:08 10° SW 19:08:14 63° NW 19:17:26 10° NNE visible
18 Apr 9.3 18:36:10 10° SW 18:45:20 69° NW 18:54:35 10° NNE visible
18 Apr 11.3 20:48:05 10° WNW 20:50:40 11° NW 20:53:15 10° NNW visible
19 Apr 10.0 05:21:46 10° NNW 05:31:35 55° NE 05:41:24 10° SE visible
19 Apr 9.3 18:13:13 10° SW 18:22:27 75° NW 18:31:43 10° NE visible
19 Apr 11.3 20:23:57 10° WNW 20:27:39 13° NW 20:31:24 10° NNW visible
20 Apr 10.1 04:58:56 10° NNW 05:08:38 50° NE 05:18:19 10° ESE visible
20 Apr 11.3 20:00:08 10° WNW 20:04:40 14° NW 20:09:14 10° NNW visible
21 Apr 10.1 04:36:09 10° NNW 04:45:41 46° NE 04:55:14 10° ESE visible
21 Apr 11.3 19:36:29 10° W 19:41:41 16° NW 19:46:56 10° N visible
